Date,TemperatureHighF,TemperatureAvgF,TemperatureLowF,DewpointHighF,DewpointAvgF,DewpointLowF,HumidityHigh,HumidityAvg,HumidityLow,PressureMaxIn,PressureMinIn,WindSpeedMaxMPH,WindSpeedAvgMPH,GustSpeedMaxMPH,PrecipitationSumIn
2013-2-1,69.5,60.0,50.1,58.0,49.4,39.0,79,68,56,30.34,30.23,11,3,16,0.00
2013-2-2,70.5,62.0,54.3,56.0,49.0,38.0,87,64,50,30.32,30.18,10,2,12,0.00
2013-2-3,71.3,62.9,55.5,56.0,49.8,41.0,91,65,35,30.23,30.14,7,2,13,0.00
2013-2-4,73.1,61.7,49.7,56.0,48.6,40.0,86,65,32,30.20,30.09,11,2,14,0.00
2013-2-5,74.4,66.8,55.6,64.0,57.8,51.0,89,74,56,30.15,30.07,9,2,12,0.00
2013-2-6,77.1,70.1,62.3,68.0,63.3,59.0,95,80,63,30.17,30.08,11,4,16,0.00
2013-2-7,76.9,73.3,70.6,69.0,65.4,63.0,81,76,68,30.14,30.00,11,6,15,0.00
2013-2-8,80.7,72.6,68.1,70.0,66.5,59.0,95,82,49,30.09,29.97,10,3,15,0.00
2013-2-9,75.4,70.3,63.8,68.0,64.2,61.0,97,82,67,30.23,30.08,13,4,16,0.01
2013-2-10,72.7,71.3,69.1,64.0,62.4,60.0,84,73,68,30.33,30.21,16,9,21,0.00
2013-2-11,75.6,72.7,70.0,66.0,64.0,61.0,82,74,66,30.28,30.17,13,6,18,0.00
2013-2-12,79.2,73.7,66.7,70.0,67.7,64.0,92,82,68,30.17,30.03,15,4,18,0.00
2013-2-13,83.0,75.8,69.5,74.0,70.4,68.0,95,83,62,30.06,29.94,14,4,19,0.00
2013-2-14,73.7,68.3,62.2,71.0,66.7,62.0,98,94,89,30.07,29.94,10,2,18,1.23
2013-2-15,72.1,66.3,62.9,67.0,64.5,62.0,98,94,83,30.09,30.00,8,1,12,0.23
2013-2-16,70.7,63.9,53.9,63.0,55.7,43.0,96,77,47,30.14,29.94,20,6,30,0.00
2013-2-17,56.0,50.2,43.2,43.0,30.7,19.0,70,49,30,30.37,30.14,13,5,23,0.00
2013-2-18,66.8,58.0,45.9,56.0,44.8,31.0,71,62,55,30.39,30.27,16,7,19,0.00
2013-2-19,74.9,69.9,61.3,68.0,61.3,53.0,96,75,61,30.27,30.14,17,6,19,0.02
2013-2-20,74.6,69.5,63.1,67.0,65.1,62.0,97,86,70,30.18,30.07,9,2,11,0.00
2013-2-21,77.4,72.1,65.0,71.0,67.0,63.0,97,84,72,30.16,30.06,10,4,13,0.00
2013-2-22,77.9,75.1,72.7,72.0,70.0,67.0,88,84,80,30.16,30.07,15,8,21,0.00
2013-2-23,79.7,75.5,70.6,73.0,70.8,69.0,97,86,75,30.10,29.97,15,7,19,0.01
2013-2-24,85.1,76.3,70.9,74.0,70.9,66.0,97,84,54,30.05,29.95,11,4,14,0.00
2013-2-25,80.8,75.2,69.8,74.0,71.2,68.0,95,88,76,29.98,29.87,14,5,23,0.02
2013-2-26,85.2,78.4,74.7,74.0,71.7,69.0,92,80,58,29.94,29.85,16,6,24,0.00
2013-2-27,76.0,69.8,63.8,73.0,64.6,60.0,96,84,69,30.02,29.92,7,3,14,0.28
2013-2-28,64.3,63.0,62.2,56.0,53.6,50.0,77,72,60,30.00,29.99,4,2,6,0.01